www.pogodaiklimat.ru
ПОГОДА в Карловаце
Время
(UTC), дата
00 16.10
03 16.10
04 16.10
05 16.10
06 16.10
07 16.10
08 16.10
09 16.10
10 16.10
11 16.10
12 16.10
13 16.10
14 16.10
15 16.10
16 16.10
17 16.10
18 16.10
19 16.10
20 16.10
21 16.10
00 17.10
03 17.10
04 17.10
05 17.10
06 17.10
07 17.10
08 17.10
09 17.10
10 17.10
11 17.10
12 17.10
13 17.10
14 17.10
15 17.10
16 17.10
17 17.10
18 17.10
19 17.10
20 17.10
21 17.10
00 18.10
03 18.10
04 18.10
05 18.10
06 18.10
07 18.10
09 18.10
10 18.10
11 18.10
12 18.10
13 18.10
14 18.10
15 18.10
16 18.10
17 18.10
18 18.10
19 18.10
20 18.10
21 18.10
00 19.10
03 19.10
04 19.10
05 19.10
06 19.10
07 19.10
08 19.10
09 19.10
10 19.10
11 19.10
12 19.10
13 19.10
14 19.10
15 19.10
16 19.10
17 19.10
18 19.10
19 19.10
20 19.10
21 19.10
00 20.10
03 20.10
04 20.10
05 20.10
06 20.10
07 20.10
08 20.10
09 20.10
10 20.10
11 20.10
12 20.10
13 20.10
14 20.10
15 20.10
16 20.10
17 20.10
18 20.10
19 20.10
20 20.10
21 20.10
00 21.10
03 21.10
04 21.10
05 21.10
06 21.10
07 21.10
08 21.10
09 21.10
10 21.10
11 21.10
12 21.10
13 21.10
14 21.10
15 21.10
16 21.10
17 21.10
18 21.10
19 21.10
20 21.10
21 21.10
00 22.10
03 22.10
04 22.10
05 22.10
06 22.10
07 22.10
08 22.10
09 22.10
10 22.10
11 22.10
12 22.10
13 22.10
14 22.10
15 22.10
16 22.10
17 22.10
18 22.10
19 22.10
20 22.10
Ветер
(напр.,м/с)
Видим. Явления Облачность Т
(С)
Тd
(С)
f
(%)
Тe
(С)
Тes
(С)
Комфортность P
(гПа)
Po
(гПа)
Тmin
(С)
Tmax
(С)
R
(мм)
R24
(мм)
S
(см)
ЮВ 1 н/о н/о +9.6 +9.4 99 +9 +9 тепло 1014.0 1000.5
З 1 15 км 1/0
[Ac trans]
+8.3 +7.7 96 +7 +7 тепло 1013.7 1000.2
СЗ 1 15 км 3/0
[Ac trans]
+8.5 +7.9 96 +8 +8 тепло 1013.9 1000.4
ЮВ 1 3000 м дымка 6/4 1500 м
[Sc Ac trans]
+8.5 +7.9 96 +8 +8 тепло 1014.1 1000.6
ЮВ 1 5000 м дымка 10/6 1500 м
[Sc Ac As]
+9.7 +9.3 97 +9 +9 тепло 1014.8 1001.4 +8.3
Ю 1 7000 м в посл. час дождь 10/10 1000 м
[Sc]
+10.7 +10.1 96 +10 +10 тепло 1015.8 1002.4
10 км н/о +12.1 +11.5 96 +12 +12 тепло 1015.9 1002.6
З 1 15 км {дождь} 9/9 1000 м
[Sc]
+13.6 +12.5 93 +14 +14 тепло 1016.6 1003.3
СВ 1 15 км {дождь} 9/9 1000 м
[Sc]
+14.7 +13.2 91 +15 +16 тепло 1016.8 1003.6
СВ 1 20 км {дождь} 8/8 1000 м
[Sc]
+15.8 +13.4 86 +16 +18 тепло 1016.6 1003.4
СВ 1 20 км 8/8 1000 м
[Sc]
+17.0 +14.0 82 +18 +19 тепло 1016.3 1003.2 0.6
СВ 2 30 км 4/4 600 м
[Cu Sc]
+18.5 +14.8 79 +20 +22 тепло 1016.2 1003.2
СВ 1 н/о н/о +19.8 +14.5 71 +23 +23 комфорт 1016.0 1002.9
СВ 1 н/о н/о +19.6 +14.9 74 +23 +23 комфорт 1016.1 1003.0
штиль 0 н/о н/о +16.8 +14.7 87 +17 +17 тепло 1016.6 1003.4
штиль 0 н/о н/о +14.3 +13.6 96 +14 +14 тепло 1017.4 1004.1
СВ 1 30 км 1/0
[Ci sp]
+13.7 +13.2 97 +14 +14 тепло 1018.1 1004.8 +20.0 0.6
СЗ 1 20 км 1/0
[Ci sp]
+12.7 +12.2 97 +13 +13 тепло 1018.7 1005.4
С 1 20 км 9/9 1000 м
[Sc]
+14.0 +13.6 97 +14 +14 тепло 1019.3 1006.0
штиль 0 н/о н/о +14.1 +13.5 96 +14 +14 тепло 1019.7 1006.3
штиль 0 н/о н/о +11.4 +10.9 97 +11 +11 тепло 1020.1 1006.6
Ю 1 15 км местами туман поземный 3/0
[Ac lent Ci fib]
+10.0 +9.6 97 +9 +9 тепло 1019.7 1006.2
ЮВ 1 15 км местами туман поземный 9/9 1000 м
[Sc]
+9.2 +8.8 97 +8 +8 тепло 1019.7 1006.2
Ю 1 10 км {туман} 10/10 1000 м
[Sc]
+10.5 +9.9 96 +10 +10 тепло 1019.6 1006.1
штиль 0 10 км {туман} 10/10 1000 м
[Sc]
+11.4 +11.0 97 +11 +11 тепло 1019.8 1006.4 +9.2
СВ 1 10 км {туман} 10/10 600 м
[Sc]
+12.4 +11.7 95 +12 +12 тепло 1020.0 1006.6
Ю 1 10 км {туман} 10/10 600 м
[Sc]
+13.8 +12.4 91 +14 +14 тепло 1020.0 1006.7
Ю 1 15 км {туман} 9/8 600 м
[Cu Sc Ac lent]
+15.2 +12.3 83 +16 +16 тепло 1020.2 1007.0
СЗ 1 35 км 6/3 600 м
[Cu Sc Ac lent Ci fib]
+17.0 +11.3 69 +18 +22 тепло 1019.9 1006.7
СВ 1 40 км 4/1 1000 м
[Cu med, cong Ac lent Ci]
+18.8 +11.3 62 +21 +26 комфорт 1019.0 1005.9
СВ 2 50 км 5/1 1000 м
[Cu med, cong Ci fib]
+19.9 +11.7 59 +22 +27 комфорт 1018.5 1005.5
СВ 2 50 км 5/3 1000 м
[Cu med, cong Ac lent Ci fib]
+20.5 +11.4 56 +23 +26 комфорт 1018.0 1005.0
СВ 1 н/о н/о +21.7 +12.3 55 +24 +24 комфорт 1017.4 1004.4
штиль 0 н/о н/о +22.6 +12.6 53 +25 +25 комфорт 1017.0 1004.1
Ю 1 н/о н/о +18.2 +12.3 68 +20 +20 тепло 1017.3 1004.2
н/о н/о +14.8 +11.6 81 1017.8 1004.5
Ю 1 45 км 1/0
[Ci fib]
+12.6 +10.8 89 +13 +13 тепло 1018.0 1004.7 +22.5
З 1 40 км 1/0
[Ci fib]
+11.2 +9.9 92 +11 +11 тепло 1018.2 1004.8
В 1 35 км 1/0
[Ci fib]
+10.2 +9.4 95 +10 +10 тепло 1018.7 1005.2
штиль 0 н/о н/о +9.1 +8.6 97 +8 +8 тепло 1018.8 1005.2
штиль 0 н/о н/о +8.2 +8.0 99 +7 +7 тепло 1018.6 1005.0
З 1 10 км местами туман поземный 3/0
[Ac lent]
+6.8 +6.6 99 +6 +6 тепло 1018.5 1004.9
ЮВ 1 15 км {туман} 9/9 1500 м
[Sc]
+6.6 +6.4 99 +5 +5 тепло 1018.3 1004.7
штиль 0 35 км {туман} 9/9 1500 м
[Sc]
+8.4 +8.0 97 +7 +7 тепло 1017.9 1004.4
СВ 1 45 км {туман} 9/9 1500 м
[Sc]
+9.8 +9.2 96 +9 +9 тепло 1018.0 1004.5 +6.5
штиль 0 40 км {туман} 5/3 1500 м
[Sc Ac lent Ci fib]
+11.8 +11.1 95 +11 +12 тепло 1018.1 1004.7
Ю 2 50 км {туман} 8/4 1500 м
[Sc Ac lent Cs]
+17.9 +9.0 56 +18 +20 тепло 1017.6 1004.5
ЮЗ 2 50 км 6/3 1000 м
[Sc diur, vesp Ac lent Cs]
+21.0 +11.4 54 +24 +27 комфорт 1017.4 1004.5
ЮЗ 2 50 км 8/8 1000 м
[Sc diur, vesp Cs]
+21.1 +10.5 51 +23 +24 комфорт 1017.1 1004.2
ЮЗ 3 50 км 8/4 1000 м
[Cu Sc Ac lent Cs]
+21.6 +11.0 51 +23 +25 комфорт 1016.5 1003.6
Ю 3 50 км 9/8 600 м
[Cu Sc Cs]
+19.9 +10.1 53 +21 +22 комфорт 1016.5 1003.5
ЮЗ 2 н/о н/о +19.3 +11.4 60 +21 +21 комфорт 1016.3 1003.2
ЮЗ 3 н/о н/о +19.1 +11.5 61 +20 +20 тепло 1016.3 1003.2
ЮЗ 2 н/о н/о +18.0 +11.8 67 +19 +19 тепло 1016.2 1003.1
ЮЗ 2 н/о н/о +16.7 +11.5 71 +17 +17 тепло 1016.3 1003.1
В 1 40 км 8/3 1500 м
[Sc Ac lent Cs]
+14.6 +9.8 73 +15 +15 тепло 1016.7 1003.5 +22.1
ЮЗ 1 30 км 3/1 1500 м
[Sc Cs]
+13.5 +11.4 87 +14 +14 тепло 1016.9 1003.6
ЮВ 1 25 км 3/0
[Ac lent Cs]
+11.5 +10.0 90 +11 +11 тепло 1017.2 1003.8
З 1 н/о н/о +10.0 +9.5 97 +9 +9 тепло 1017.4 1003.9
штиль 0 н/о н/о +8.7 +8.3 97 +8 +8 тепло 1017.1 1003.5
Ю 1 50 км 3/1 1500 м
[Sc Ac lent]
+8.6 +7.6 93 +8 +8 тепло 1018.8 1005.3
ЮВ 1 50 км 3/1 1500 м
[Sc Ac lent]
+7.9 +7.1 95 +7 +7 тепло 1017.2 1003.6
ЮВ 1 50 км 3/1 1500 м
[Sc Ac lent]
+7.8 +7.0 95 +7 +7 тепло 1017.1 1003.5
С 1 50 км 4/1 1500 м
[Sc Ac lent Ci fib]
+7.7 +6.7 93 +7 +7 тепло 1017.2 1003.6 +7.5
В 1 50 км 4/1 1500 м
[Sc Ac lent Ci fib]
+10.7 +9.8 94 +10 +11 тепло 1017.3 1003.9
ЮЗ 1 50 км 4/0
[Ac lent Ci fib]
+16.6 +11.4 71 +17 +20 тепло 1016.9 1003.8
Ю 2 50 км 4/0
[Ac lent Ci fib]
+19.8 +10.5 55 +22 +25 комфорт 1016.5 1003.5
Ю 2 50 км 3/1 1000 м
[Cu hum Ac lent Ci fib]
+22.0 +11.3 51 +24 +29 комфорт 1016.3 1003.4
ЮЗ 4 50 км 3/1 1000 м
[Cu hum Ac lent Ci fib]
+22.8 +10.9 47 +25 +28 комфорт 1015.9 1003.0
ЮЗ 4 50 км 4/3 600 м
[Cu Sc Ac lent Ci fib]
+23.2 +10.1 43 +25 +27 комфорт 1015.5 1002.7
Ю 3 50 км 3/3 1000 м
[Cu hum Ac lent]
+23.4 +10.0 43 +25 +28 комфорт 1015.3 1002.5
ЮЗ 4 н/о н/о +23.1 +8.8 40 +24 +24 комфорт 1015.6 1002.7
н/о н/о +22.0 +9.3 44 1015.8 1002.8
ЮЗ 1 н/о н/о +19.8 +10.6 55 +22 +22 комфорт 1016.3 1003.2
Ю 2 н/о н/о +17.9 +11.1 64 +18 +18 тепло 1016.6 1003.5
Ю 2 50 км 1/0
[Ac lent]
+18.4 +11.0 62 +19 +19 тепло 1016.6 1003.5 +23.5
В 1 50 км 1/0
[Ac lent]
+15.2 +11.6 79 +16 +16 тепло 1016.9 1003.7
Ю 1 50 км ясно +13.8 +11.0 83 +14 +14 тепло 1017.4 1004.1
Ю 1 н/о н/о +12.9 +11.2 89 +13 +13 тепло 1017.5 1004.1
Ю 2 н/о н/о +15.8 +10.6 71 +16 +16 тепло 1017.2 1004.0
С 1 40 км 8/4 1500 м
[Sc Ac lent]
+13.9 +9.2 73 +14 +14 тепло 1017.3 1004.0
Ю 2 50 км 8/4 1500 м
[Sc Ac lent]
+17.5 +10.0 61 +18 +18 тепло 1017.1 1004.0
Ю 2 40 км 8/4 1500 м
[Sc Ac lent]
+17.3 +9.7 61 +18 +18 тепло 1017.8 1004.7
ЮВ 1 40 км 8/4 1500 м
[Sc Ac lent]
+16.3 +10.3 68 +17 +17 тепло 1018.2 1005.0 +12.4
Ю 1 50 км 6/3 1500 м
[Sc Ac lent Ci fib]
+17.8 +10.9 64 +19 +19 тепло 1018.9 1005.8
Ю 2 50 км 3/0
[Ac lent Ci fib]
+20.7 +10.8 53 +23 +25 комфорт 1018.8 1005.8
Ю 2 50 км 3/0
[Ac lent Ci fib]
+23.9 +12.3 48 +26 +29 жарко 1018.6 1005.8
Ю 2 50 км 6/3 1500 м
[Sc Ac lent Ci fib]
+24.8 +10.6 41 +26 +29 жарко 1018.6 1005.8
Ю 4 50 км 4/3 600 м
[Cu med, cong Ac lent Ci fib]
+24.8 +10.8 41 +26 +29 жарко 1018.3 1005.5
Ю 4 50 км 4/3 600 м
[Cu med, cong Ci fib]
+24.9 +10.7 41 +26 +29 жарко 1017.6 1004.8
ЮЗ 5 50 км 6/3 600 м
[Cu med, cong Cs]
+24.2 +10.4 42 +25 +27 комфорт 1017.5 1004.7
ЮЗ 2 н/о н/о +24.6 +11.9 45 +26 +26 жарко 1017.4 1004.5
ЮЗ 2 н/о н/о +24.1 +11.8 46 +26 +26 жарко 1017.4 1004.5
ЮЗ 2 н/о н/о +21.6 +11.7 53 +24 +24 комфорт 1017.8 1004.8
Ю 2 н/о н/о +19.6 +12.2 62 +22 +22 комфорт 1018.5 1005.4
ЮЗ 2 50 км ясно +20.2 +11.4 57 +23 +23 комфорт 1018.6 1005.6 +25.0
Ю 2 50 км ясно +19.0 +11.0 60 +20 +20 тепло 1018.7 1005.6
Ю 1 50 км ясно +15.8 +11.3 75 +17 +17 тепло 1019.3 1006.1
З 1 н/о н/о +13.7 +11.6 87 +14 +14 тепло 1019.8 1006.4
Ю 1 н/о н/о +12.6 +12.0 96 +13 +13 тепло 1020.3 1006.9
ЮВ 1 40 км 3/3 1500 м
[Sc]
+12.6 +11.5 93 +13 +13 тепло 1020.6 1007.2
З 1 40 км ясно +14.7 +11.4 81 +15 +15 тепло 1020.7 1007.4
Ю 1 40 км 3/0
[Ci fib]
+14.3 +11.0 81 +15 +15 тепло 1020.7 1007.4
Ю 1 50 км 3/1 600 м
[Cu med, cong Ci fib]
+14.5 +11.4 82 +15 +15 тепло 1020.7 1007.4 +12.2
ЮВ 1 50 км 3/0
[Ci fib]
+18.0 +12.5 70 +19 +20 тепло 1021.4 1008.3
ЮВ 2 50 км 3/0
[Ci fib]
+19.8 +11.9 60 +22 +24 комфорт 1021.7 1008.6
Ю 2 50 км 3/0
[Ci fib]
+21.0 +12.0 56 +24 +28 комфорт 1022.0 1009.0
ЮЗ 2 50 км 4/0
[Ci fib]
+23.9 +11.9 47 +26 +31 жарко 1021.9 1009.0
ЮЗ 2 50 км 3/0
[Ci fib]
+24.2 +12.3 47 +26 +32 жарко 1021.6 1008.7
З 1 50 км 4/0
[Ci fib]
+25.2 +13.3 48 +27 +33 жарко 1021.2 1008.4
З 2 50 км 3/0
[Ci fib]
+25.6 +13.5 47 +28 +32 жарко 1020.7 1007.9
З 3 н/о н/о +25.8 +14.7 50 +28 +28 жарко 1020.8 1007.9
З 2 н/о н/о +25.2 +13.5 48 +27 +27 жарко 1020.6 1007.7
З 1 н/о н/о +22.7 +13.5 56 +26 +26 жарко 1020.9 1007.9
ЮЗ 1 н/о н/о +18.2 +14.0 76 +20 +20 тепло 1021.8 1008.6
ЮВ 1 50 км ясно +16.0 +13.1 83 +17 +17 тепло 1021.8 1008.6 +25.8
В 1 50 км ясно +15.0 +13.3 90 +15 +15 тепло 1022.0 1008.7
Ю 2 50 км ясно +14.4 +12.8 90 +14 +14 тепло 1022.0 1008.7
Ю 1 н/о н/о +13.6 +12.7 94 +14 +14 тепло 1022.1 1008.7
Ю 1 н/о н/о +10.9 +10.7 99 +10 +10 тепло 1022.9 1009.3
ЮЗ 1 40 км местами туман поземный 1/0
[Ac trans]
+9.3 +8.7 96 +9 +9 тепло 1022.5 1008.9
Ю 1 40 км 1/0
[Ci fib]
+8.8 +8.4 97 +8 +8 тепло 1022.7 1009.1
В 1 30 км местами туман поземный 3/0
[Ci fib]
+8.4 +8.0 97 +7 +7 тепло 1022.7 1009.1
ЮВ 1 40 км 3/0
[Ci fib]
+8.6 +8.2 97 +8 +8 тепло 1023.1 1009.5 +8.2
Ю 1 50 км 4/0
[Ci sp]
+12.0 +10.9 93 +12 +13 тепло 1023.2 1009.8
С 1 50 км 4/0
[Ci sp]
+15.1 +12.0 82 +16 +18 тепло 1023.2 1009.9
Ю 1 50 км 5/0
[Ci sp]
+18.1 +12.2 68 +19 +24 тепло 1022.9 1009.8
В 1 50 км 4/0
[Ci sp]
+20.2 +12.9 63 +23 +29 комфорт 1022.9 1009.9
В 1 50 км 6/0
[Ci sp]
+22.7 +13.9 58 +26 +32 жарко 1022.4 1009.5
Ю 1 50 км 5/0
[Ci sp]
+24.4 +13.5 51 +27 +32 жарко 1021.6 1008.8
В 1 50 км 5/0
[Ci sp]
+25.5 +14.7 51 +28 +32 жарко 1021.1 1008.3
В 1 н/о н/о +25.8 +12.7 44 +28 +28 жарко 1020.8 1007.9
штиль 0 н/о н/о +25.6 +14.2 49 +28 +28 жарко 1020.6 1007.7
н/о н/о +21.9 +15.6 67 1020.8 1007.8
штиль 0 н/о н/о +17.3 +14.6 84 +17 +17 тепло 1021.5 1008.3
С 1 50 км 1/0
[Ci fib]
+15.2 +13.8 91 +16 +16 тепло 1021.6 1008.4 +25.6
Ю 1 50 км ясно +14.4 +13.7 96 +15 +15 тепло 1021.7 1008.4
Ю 1 40 км местами туман поземный ясно +13.1 +12.6 97 +13 +13 тепло 1022.0 1008.6
Местоположение метеостанции Карловац (Хорватия): широта 45.50 долгота 15.57 высота над уровнем моря 111 м.
В архиве по умолчанию представлена погода в Карловаце за последнюю неделю. Архивные данные за месяц целиком и за предыдущие месяцы, начиная с января 2011 года, Вы можете получить, выбрав интересующий диапазон дат из раскрывающегося списка и нажав кнопку "Найти!".
*Определитесь, кто Вы:
Внимание! Время в таблицах - всемирное. Для получения местного времени необходимо прибавить поправку, которая равна 1 ч.
Смотрите также архив погоды в соседних городах и на ближайших метеорологических станциях:
Партнеры нашего сайта:      
Пояснения к столбцам:
  • Ветер - указаны скорость ветра в м/с - средняя за 10 мин, порывы в срок и между сроками (в фигурных скобках) и направление, откуда дует ветер: С - северный,
  • СВ - северо-восточный, В - восточный, ЮВ - юго-восточный, Ю - южный, ЮЗ - юго-западный, З - западный, СЗ - северо-западный.
  • Видимость - горизонтальная дальность видимости в метрах или километрах. При видимости от 1 до 10 км при отсутствии осадков обычно наблюдается дымка, при ухудшении видимости до 1 км и менее - туман. В сухую погоду видимость может ухудшаться дымом, пылью или мглою.
  • Явления - указаны атмосферные явления, наблюдавшиеся в срок или в последний час перед сроком; фигурными скобками обозначены явления, наблюдавшиеся между сроками (за 1-3 часа до срока); квадратными скобками обозначены град или гололедные отложения с указанием их диаметра в мм.
  • Облачность - указаны через наклонную черту общая и нижняя облачность в баллах и высота нижней границы облаков в метрах; квадратными скобками обозначены формы облаков: Ci - перистые, Cs - перисто-слоистые, Cc - перисто-кучевые, Ac - высококучевые, As - высокослоистые, Sc - слоисто-кучевые, Ns - слоисто-дождевые, Cu - кучевые, Cb - кучево-дождевые. Подробнее классификацию облаков см. в Атласе облаков (PDF).
  • T - Температура воздуха - температура, измеренная на высоте 2 м над землей.
  • Td - Температура точки росы - температура, при понижении до которой содержащийся в воздухе водяной пар достигнет насыщения.
  • f - Относительная влажность воздуха - влажноcть воздуха, измеренная на высоте 2 м над землей.
  • Te - Эффективная температура - температура, которую ощущает одетый по сезону человек в тени. Характеристика душности погоды. При расчете учитывается влияние влажности воздуха и скорости ветра на теплоощущения человека.
  • Tes - Эффективная температура на солнце - температура, которую ощущает человек, с поправкой на солнечный нагрев. Характеристика знойности погоды. Зависит от высоты солнца над горизонтом, облачности и скорости ветра. Ночью, в пасмурную погоду, а также при ветре 12 м/с и более поправка равна нулю.
  • P - Атмосферное давление - приведенное к уровню моря атмосферное давление.
  • Po - Атмосферное давление - измеренное на уровне метеостанции атмосферное давление.
  • Tmin - Минимальная температура - минимум температуры воздуха на высоте 2 м над землей.
  • Tmax - Максимальная температура - максимум температуры воздуха на высоте 2 м над землей.
  • R - Количество осадков - Количество выпавших осадков за период времени, мм. При наведении курсора мыши на число - период времени, за который выпало указанное количество осадков.
  • R24 - Количество осадков - Количество выпавших осадков за 24 часа, мм.
  • S - Снежный покров - Высота снежного покрова, см. При наведении курсора мыши на число - состояние снежного покрова и степень покрытия местности в баллах.